QZS-6 (MICHIBIKI-6)

Last updated on Sun Apr 12 2026 00:02:57 GMT+0000 (Coordinated Universal Time)

1 62876U 25023A 26101.46850309 -.00000232 00000+0 00000+0 0 9992 2 62876 0.0201 284.8841 0002084 109.1916 64.8191 1.00271906 4290
UTC large
Height (km)
Speed (km/s)
/
Latitude / Longitude
Inclination (degrees)
Orbital Period (minutes)
Azimuth
Elevation
Range (km)
Doppler Factor

Next 0 passes for location: London (51.5072 / 0.1276)

Sorry there are no passes over London.